Location: Bovenkerk
(52.2915°N, 4.8336°E)
Time: 16:21:14
(UTC+00:00)

Cosmos 1607 - Pass Details

Date: 09 April 2020
Orbit: 916 x 986 km, 65.0° (Epoch: 03 June)

Event Time Altitude Azimuth Distance (km) Brightness Sun altitude
Exits shadow 23:12:02 64° 265° (W) 1,034 4.0 -29.3°
Maximum altitude 23:12:51 73° 316° (NW) 983 4.0 -29.4°
Drops below altitude 10° 23:19:07 10° 42° (NE) 2,686 6.8 -29.5°
Sets 23:21:43 0° 44° (NE) 3,645 7.5 -29.5°
